(61399) = 2000 QZ5 = 2001 XO198 = 2011 VS23

Discovered at Socorro on 2000-08-24 by LINEAR.

Orbit

Orbit type: Main Belt

Note: WebGL enabled browser required.

epoch2024-03-31.0
epoch JD2460400.5
perihelion date2021-06-15.83972
perihelion JD2459381.33973
argument of perihelion (°)138.39128
ascending node (°)151.14416
inclination (°)3.56469
eccentricity0.0936525
perihelion distance (AU)2.1058002
Tisserand w.r.t. Jupiter3.6
ΔV w.r.t. Earth (km/sec)9.1
semimajor axis (AU)2.3233916
mean anomaly (°)283.63704
mean daily motion (°/day)0.27830460
aphelion distance (AU)2.541
period (years)3.54
P-vector [x]0.33500986
P-vector [y]-0.88005770
P-vector [z]-0.33655140
Q-vector [x]0.94173670
Q-vector [y]0.32412624
Q-vector [z]0.08985639
absolute magnitude16.08
phase slope0.15
uncertainty0
referenceE2024-H23
observations used1183
oppositions20
arc length (days)10691
first opposition used1995
last opposition used2024
residual rms (arc-secs)0.75
perturbers coarse indicatorM-v
perturbers precise indicator003Ek
first observation date used1995-01-09.0
last observation date used2024-04-17.0
computer nameMPCLINUX
JD of orbit computation2456966.743176
perihelion JD uncertainty (days)7.8854E-05
argument of perihelion uncertainty (°)6.0523E-05
ascending node uncertainty (°)5.6263E-05
inclination uncertainty (°)4.5492E-06
eccentricity uncertainty 3.7937E-08
perihelion distance uncertainty (AU)9.0450E-08
Minimum Orbit Intersection Distances (in AU)
for orbit epoch: 2460400.5, reference: E2024-H23
Mercury1.65483
Venus1.38095
Earth1.09095
Mars0.65477
Jupiter2.57146
Saturn6.51351
Uranus15.9803
Neptune27.4098

Observations

1198 total observations over interval: 1995 01 09.32721 – 2024 03 19.602009
These data are available for download (format description).

Date (UT) J2000 RA J2000 Dec Magn Location Ref
1995 01 09.32721 08 39 56.21 +15 22 55.2 19.4 V 691 – Steward Observatory, Kitt Peak-Spacewatch MPS 79710
1995 01 09.36794 08 39 53.96 +15 23 05.2 19.2 V 691 – Steward Observatory, Kitt Peak-Spacewatch MPS 79710
1995 01 09.39209 08 39 52.62 +15 23 11.0 19.5 V 691 – Steward Observatory, Kitt Peak-Spacewatch MPS 79710
1997 11 29.16599 04 07 27.12 +14 53 58.9 19.2   704 – Lincoln Laboratory ETS, New Mexico MPS 48872
1997 11 29.18515 04 07 25.87 +14 53 54.7 19.1   704 – Lincoln Laboratory ETS, New Mexico MPS 48872
1997 11 29.20386 04 07 24.36 +14 53 50.4 19.5   704 – Lincoln Laboratory ETS, New Mexico MPS 48872
1997 11 29.22255 04 07 23.21 +14 53 50.7 19.7   704 – Lincoln Laboratory ETS, New Mexico MPS 48872
2000 08 24.28805 23 33 04.42 -04 17 18.9 18.8   704 – Lincoln Laboratory ETS, New Mexico MPS 18024
2000 08 24.30078 23 33 03.79 -04 17 24.3 19.0   704 – Lincoln Laboratory ETS, New Mexico MPS 18024
2000 08 24.31353 23 33 03.29 -04 17 29.0 18.0   704 – Lincoln Laboratory ETS, New Mexico MPS 18024
2000 08 24.32626 23 33 02.74 -04 17 34.4 18.6   704 – Lincoln Laboratory ETS, New Mexico MPS 18024
2000 08 25.32429 23 32 20.18 -04 24 37.4 18.2   704 – Lincoln Laboratory ETS, New Mexico MPS 18024
2000 08 25.33742 23 32 19.58 -04 24 42.8 18.8   704 – Lincoln Laboratory ETS, New Mexico MPS 18024
2000 08 25.35017 23 32 19.00 -04 24 48.5 19.1   704 – Lincoln Laboratory ETS, New Mexico MPS 18024
2000 08 28.29500 23 30 06.86 -04 46 14.6 18.4   704 – Lincoln Laboratory ETS, New Mexico MPS 18024
2000 08 28.30993 23 30 06.13 -04 46 21.7 18.1   704 – Lincoln Laboratory ETS, New Mexico MPS 18024
2000 08 28.34213 23 30 04.55 -04 46 37.8 19.1   704 – Lincoln Laboratory ETS, New Mexico MPS 18024
2000 08 31.32633 23 27 41.73 -05 09 07.1 18.7   704 – Lincoln Laboratory ETS, New Mexico MPS 18024
2000 08 31.34035 23 27 40.99 -05 09 13.5 18.5   704 – Lincoln Laboratory ETS, New Mexico MPS 18024
2000 08 31.35479 23 27 40.29 -05 09 20.6 19.2   704 – Lincoln Laboratory ETS, New Mexico MPS 18024
2000 08 31.36940 23 27 39.55 -05 09 26.9 19.2   704 – Lincoln Laboratory ETS, New Mexico MPS 18024
2000 08 31.38364 23 27 38.79 -05 09 33.3 19.0   704 – Lincoln Laboratory ETS, New Mexico MPS 18024
2000 09 01.25384 23 26 56.14 -05 16 14.0 18.6   704 – Lincoln Laboratory ETS, New Mexico MPS 18024
2000 09 01.26699 23 26 55.50 -05 16 20.6 18.7   704 – Lincoln Laboratory ETS, New Mexico MPS 18024
2000 09 01.29388 23 26 54.06 -05 16 32.7 19.4   704 – Lincoln Laboratory ETS, New Mexico MPS 18024
2000 09 01.30707 23 26 53.36 -05 16 40.0 18.8   704 – Lincoln Laboratory ETS, New Mexico MPS 18024
2000 09 02.31427 23 26 02.77 -05 24 26.4 18.3 R 699 – Lowell Observatory-LONEOS MPS 18024
2000 09 02.33349 23 26 01.75 -05 24 34.8   699 – Lowell Observatory-LONEOS MPS 18024
2000 09 02.35269 23 26 00.74 -05 24 44.6   699 – Lowell Observatory-LONEOS MPS 18024
2000 09 02.37193 23 25 59.75 -05 24 53.1   699 – Lowell Observatory-LONEOS MPS 18024
2000 09 05.25651 23 23 32.28 -05 47 20.2 18.4   704 – Lincoln Laboratory ETS, New Mexico MPS 18024
2000 09 05.26955 23 23 31.66 -05 47 27.7 19.1   704 – Lincoln Laboratory ETS, New Mexico MPS 18024
2000 09 05.28326 23 23 30.87 -05 47 33.1 18.7   704 – Lincoln Laboratory ETS, New Mexico MPS 18024
2000 09 05.29629 23 23 30.15 -05 47 38.5 18.8   704 – Lincoln Laboratory ETS, New Mexico MPS 18024
2000 09 05.30947 23 23 29.40 -05 47 44.9 18.8   704 – Lincoln Laboratory ETS, New Mexico MPS 18024
2000 09 06.24602 23 22 40.92 -05 55 04.6 18.3   704 – Lincoln Laboratory ETS, New Mexico MPS 18024
2000 09 06.25908 23 22 40.19 -05 55 11.1 18.8   704 – Lincoln Laboratory ETS, New Mexico MPS 18024
2000 09 06.26309 23 22 39.87 -05 55 13.5 18.5   704 – Lincoln Laboratory ETS, New Mexico MPS 18024
2000 09 06.27214 23 22 39.46 -05 55 16.7 18.4   704 – Lincoln Laboratory ETS, New Mexico MPS 18024
2000 09 06.27784 23 22 39.15 -05 55 19.3 18.9   704 – Lincoln Laboratory ETS, New Mexico MPS 18024
2000 09 06.28522 23 22 38.76 -05 55 23.4 18.7   704 – Lincoln Laboratory ETS, New Mexico MPS 18024
2000 09 06.29211 23 22 38.32 -05 55 25.9 18.8   704 – Lincoln Laboratory ETS, New Mexico MPS 18024
2000 09 06.29828 23 22 37.97 -05 55 29.3 18.4   704 – Lincoln Laboratory ETS, New Mexico MPS 18024
2000 09 06.30612 23 22 37.56 -05 55 32.1 18.9   704 – Lincoln Laboratory ETS, New Mexico MPS 18024
2000 09 06.31958 23 22 36.84 -05 55 39.1 18.4   704 – Lincoln Laboratory ETS, New Mexico MPS 18024
2000 09 24.17991 23 07 33.59 -08 05 37.0 18.5 R 699 – Lowell Observatory-LONEOS MPS 30044
2000 09 24.20306 23 07 32.48 -08 05 45.9   699 – Lowell Observatory-LONEOS MPS 30044
2000 09 24.22631 23 07 31.44 -08 05 55.4   699 – Lowell Observatory-LONEOS MPS 30044
2000 09 24.24951 23 07 30.28 -08 06 03.7   699 – Lowell Observatory-LONEOS MPS 30044
2000 09 24.25928 23 07 29.81 -08 06 07.8 18.7   704 – Lincoln Laboratory ETS, New Mexico MPS 19242
2000 09 24.27417 23 07 29.07 -08 06 12.1 18.9   704 – Lincoln Laboratory ETS, New Mexico MPS 19242
2000 09 24.28907 23 07 28.38 -08 06 18.1 18.7   704 – Lincoln Laboratory ETS, New Mexico MPS 19242
2000 09 24.30397 23 07 27.66 -08 06 23.7 19.3   704 – Lincoln Laboratory ETS, New Mexico MPS 19242
2000 09 24.31907 23 07 27.01 -08 06 30.4 18.9   704 – Lincoln Laboratory ETS, New Mexico MPS 19242
2000 10 02.19320 23 02 11.86 -08 50 12.6 19.0   704 – Lincoln Laboratory ETS, New Mexico MPS 19242
2000 10 02.20913 23 02 11.28 -08 50 18.3 18.8   704 – Lincoln Laboratory ETS, New Mexico MPS 19242
2000 10 02.25125 23 02 09.72 -08 50 29.6 19.2   704 – Lincoln Laboratory ETS, New Mexico MPS 19242
2000 10 02.26698 23 02 09.18 -08 50 33.3 18.9   704 – Lincoln Laboratory ETS, New Mexico MPS 19242
2000 10 02.28504 23 02 08.51 -08 50 39.8 19.0   704 – Lincoln Laboratory ETS, New Mexico MPS 19242
2001 12 14.46343 08 13 59.13 +16 07 23.6 20.0   704 – Lincoln Laboratory ETS, New Mexico MPS 45370
2001 12 14.47879 08 13 58.65 +16 07 25.5 19.9   704 – Lincoln Laboratory ETS, New Mexico MPS 45370
2001 12 14.49413 08 13 58.16 +16 07 26.1 19.8   704 – Lincoln Laboratory ETS, New Mexico MPS 45370
2001 12 14.50948 08 13 57.63 +16 07 28.8 19.8   704 – Lincoln Laboratory ETS, New Mexico MPS 45370
2001 12 17.38823 08 12 25.10 +16 12 05.0 20.3 V 691 – Steward Observatory, Kitt Peak-Spacewatch MPS 48872
2001 12 17.40978 08 12 24.29 +16 12 07.4 20.6 V 691 – Steward Observatory, Kitt Peak-Spacewatch MPS 48872
2001 12 17.43136 08 12 23.50 +16 12 10.2 20.3 V 691 – Steward Observatory, Kitt Peak-Spacewatch MPS 48872
2001 12 17.44629 08 12 22.95 +16 12 12.8 19.6   704 – Lincoln Laboratory ETS, New Mexico MPS 45370
2001 12 17.46158 08 12 22.41 +16 12 14.4 19.7   704 – Lincoln Laboratory ETS, New Mexico MPS 45370
2001 12 17.47686 08 12 21.86 +16 12 16.1 19.7   704 – Lincoln Laboratory ETS, New Mexico MPS 45370
2001 12 17.49214 08 12 21.26 +16 12 17.6 20.2   704 – Lincoln Laboratory ETS, New Mexico MPS 45370
2001 12 17.50741 08 12 20.69 +16 12 20.1 20.1   704 – Lincoln Laboratory ETS, New Mexico MPS 45370
2001 12 20.37616 08 10 33.64 +16 17 56.0 19.3   704 – Lincoln Laboratory ETS, New Mexico MPS 46993
2001 12 20.39129 08 10 33.01 +16 17 58.3 19.9   704 – Lincoln Laboratory ETS, New Mexico MPS 46993
2001 12 20.40657 08 10 32.34 +16 18 00.0 20.4   704 – Lincoln Laboratory ETS, New Mexico MPS 46993
2001 12 20.42292 08 10 31.72 +16 18 03.5 20.4   704 – Lincoln Laboratory ETS, New Mexico MPS 46993
2001 12 20.43802 08 10 31.06 +16 18 04.6 20.3   704 – Lincoln Laboratory ETS, New Mexico MPS 46993
2001 12 24.29793 08 07 45.36 +16 27 06.7 20.7 V 691 – Steward Observatory, Kitt Peak-Spacewatch MPS 46993
2001 12 24.30272 08 07 45.16 +16 27 07.9 20.3 V 691 – Steward Observatory, Kitt Peak-Spacewatch MPS 46993
2001 12 24.30841 08 07 44.89 +16 27 09.1 20.7 V 691 – Steward Observatory, Kitt Peak-Spacewatch MPS 46993
2001 12 25.29702 08 06 58.76 +16 29 43.0 20.2 V 291 – LPL/Spacewatch II MPS 46993
2001 12 25.30152 08 06 58.55 +16 29 43.6 20.5 V 291 – LPL/Spacewatch II MPS 46993
2001 12 25.30713 08 06 58.26 +16 29 44.6 20.4 V 291 – LPL/Spacewatch II MPS 46993
2001 12 25.31437 08 06 57.92 +16 29 45.8 20.2 V 291 – LPL/Spacewatch II MPS 46993
2001 12 25.32022 08 06 57.63 +16 29 46.7 20.1 V 291 – LPL/Spacewatch II MPS 46993
